Regional Weather Roundup
Issued by NWS San Diego, CA

Home | Current Version | Previous Version | Text Only | Print | Product List | Glossary On
Versions: 1 2 3 4 5 6 7 8 9 10 11 12 13 14 15 16 17 18 19 20 21 22 23 24 25 26 27 28 29 30 31 32 33 34 35 36 37 38 39 40 41 42 43 44 45 46 47 48 49 50
000
ASUS46 KSGX 280511
RWRSGX

SAN DIEGO HOURLY WEATHER ROUNDUP
NATIONAL WEATHER SERVICE SAN DIEGO CA
1000 PM PDT FRI MAR 27 2015

NOTE: "FAIR" INDICATES FEW OR NO CLOUDS BELOW 12,000 FEET WITH NO
SIGNIFICANT WEATHER AND/OR OBSTRUCTIONS TO VISIBILITY.

CAZ042-043-060-061-PZZ750-775-280600-

GREATER SAN DIEGO AREA

CITY           SKY/WX    TMP DP  RH WIND       PRES   REMARKS
LINDBERGH FLD  MOCLDY    64  61  90 S7        30.08R FOG
POINT LOMA       N/A     62  60  93 E1          N/A
CHULA VISTA      N/A     63  62  95 CALM      30.00R
IMPERIAL BEACH CLOUDY    61  61 100 CALM      30.08R
BROWN FIELD    FOG       60  59  96 CALM      30.07S VSB 1/4
MIRAMAR MCAS   CLEAR     60  45  57 CALM      30.07R
MONTGOMERY FLD CLEAR     65  60  84 S3        30.07R

$$

NORTH SAN DIEGO COUNTY

CITY           SKY/WX    TMP DP  RH WIND       PRES   REMARKS
CAMP PENDLETON CLEAR     61  54  77 CALM      30.06R
OCEANSIDE AP   CLEAR     62  58  86 CALM      30.05R
VISTA            N/A     64  56  75 CALM      30.04R
CARLSBAD       CLEAR     65  59  81 S3        30.06R
FALLBROOK        N/A     63  60  89 CALM      30.05R
SAN MARCOS       N/A     65  52  62 CALM      30.03R
POWAY            N/A     62  47  58 CALM      30.07R

$$

EAST SAN DIEGO COUNTY

CITY           SKY/WX    TMP DP  RH WIND       PRES   REMARKS
RAMONA         CLEAR     55  38  52 SE6       30.09R
SANTEE LAKES     N/A     63  46  54 CALM      30.07R
LA MESA          N/A     64  60  87 CALM      30.00R
MT. LAGUNA OBS   N/A     58  18  20 CALM      29.84R
CAMPO            N/A     52  34  50 NE7       30.12R

$$

ORANGE COUNTY AND THE LOS ANGELES BASIN

CITY           SKY/WX    TMP DP  RH WIND       PRES   REMARKS
JOHN WAYNE AP  CLEAR     64  57  78 SW5       30.04R
LAKE FOREST FR   N/A     71  28  20 CALM      29.93R
SANTA ANA        N/A     69  55  61 CALM      29.99R
HUNTINGTON BCH   N/A     63  59  88 CALM      30.06R
LOS ALAMITOS   CLEAR     64  58  82 CALM      30.04R
FULLERTON      CLEAR     70  54  56 S5        30.03R
LONG BEACH     CLEAR     68  50  52 NW5       30.04R
L.A. AP        CLEAR     63  57  81 W7        30.04R
L.A. DOWNTOWN  CLEAR     67  54  63 CALM      30.03R

$$

THE INLAND EMPIRE

CITY           SKY/WX    TMP DP  RH WIND       PRES   REMARKS
CORONA         CLEAR     62  42  47 CALM      30.05R
CHINO          CLEAR     68  44  42 N3        30.06R
ONTARIO        CLEAR     73  39  29 CALM      30.06R
RIVERSIDE AP   CLEAR     75  41  29 N3        30.06R
MORENO VALLEY    N/A     71  42  34 CALM      30.04S
HORSETHIEF CYN   N/A     69  27  21 CALM      30.01R
MENIFEE          N/A     70  42  36 CALM      30.10R
HEMET EAST       N/A     68  29  23 CALM      30.04S
FRENCH VALLEY  FAIR      66  39  37 E6        30.08S
TEMECULA         N/A     71  44  39 CALM      30.04R

$$

SAN BERNARDINO AND RIVERSIDE COUNTY MOUNTAINS

CITY           SKY/WX    TMP DP  RH WIND       PRES   REMARKS
BIG BEAR AP    CLEAR     39  27  60 CALM      30.34S

$$

SOUTHERN DESERT INCLUDING THE COACHELLA VALLEY

CITY           SKY/WX    TMP DP  RH WIND       PRES   REMARKS
PALM SPRINGS   CLEAR     83  32  16 N6        30.00R
THOUSAND PALMS   N/A     81  32  17 NW2       29.96R
THERMAL        CLEAR     70  37  29 NW8       29.94R
BLYTHE         CLEAR     74  34  23 W3        29.97R
IMPERIAL AP    CLEAR     76  38  25 CALM      29.94R
EL CENTRO NAS  CLEAR     76  35  22 S6        29.95R
YUMA AZ        CLEAR     78  39  24 NW7       29.97R
MEXICALI       CLEAR     73  41  31 S5        29.96R

$$

UPPER DESERT

CITY           SKY/WX    TMP DP  RH WIND       PRES   REMARKS
VICTORVILLE AP CLEAR     66  25  20 SW5       30.14R
HESPERIA         N/A     66  34  30 W6        30.16R
APPLE VALLEY     N/A     69  32  26 CALM      30.15R
PALMDALE       CLEAR     67  25  20 W7        30.13R
LANCASTER      CLEAR     64  32  30 W9        30.12R
EDWARDS AFB    CLEAR     68  26  20 SW9       30.08R
DAGGETT        CLEAR     74  27  17 NW7       30.06R
29 PALMS N     CLEAR     72  24  16 SW3       30.13R
NEEDLES        CLEAR     79  20  11 W10       29.99R

$$

REGIONAL REPORTS

CITY           SKY/WX    TMP DP  RH WIND       PRES   REMARKS
SANTA BARBARA  CLEAR     60  57  89 E3        30.03S
SANDBERG       CLEAR     65  36  34 NW16      30.24R
MT. WILSON       N/A     61  18  18 W8          N/A
LAS VEGAS NV   CLEAR     75  27  17 SW7       30.02R
PHOENIX AZ     CLEAR     79  27  14 CALM      29.99S
TIJUANA          N/A    N/A N/A N/A MISG        N/A
ENSENADA NW      N/A     63  32  31 CALM      30.05S

$$

OFFSHORE ISLANDS

CITY           SKY/WX    TMP DP  RH WIND       PRES   REMARKS
CATALINA ARPT  CLEAR     72  24  16 W8        30.11R
SAN NICOLAS IS CLEAR    N/A N/A N/A W13       30.07R

$$

MARINE AND OFFSHORE BUOY REPORTS

STATION/POSITION SKY/WX   TEMP    WIND        PRES    SWELL
                          AIR SEA DIR/SP/G            HT/PER/DIR
                          (F)     (DEG/KT/KT) (MB)    (FT/S/D)
TANNER BANKS               58 61  320/ 17/ 21 1018.7R   3/300/11
S CLEMENTE BASIN           62 64  310/  8/ 10 1017.9R   5/ 10/16
SAN NICOLAS IS.               60                N/A     5/220/15
SO. S. ROSA ISLA           56 59  310/ 21/ 27 1017.6R   3/11
W. S. BARBARA CH           55 60  320/ 23/ 29 1017.8R   5/290/12
S. MONICA BASIN            63 63  260/  6/  8 1017.6R   3/220/15
S PEDRO CHANNEL               64                N/A     2/200/15
DANA POINT                    66                N/A     2/190/18
CMP PENDLETON NS              66                N/A     3/210/20
OCEANSIDE OFFSHR              66                N/A     3/190/20
TORREY PINES OTR              67                N/A     3/230/15
MISSION BAY BUOY              66                N/A     3/210/17
SAN DIEGO BAY                 70              1018.2R
POINT LOMA SOUTH              67                N/A     3/230/15

$$




USA.gov is the U.S. government's official web portal to all federal, state and local government web resources and services.